Weather History for Hatteras, NC

Change the Weather History Date:

Monday, November 5, 2012

  Actual Average Record
Temperature  
Mean Temperature 51 °F 60 °F  
Max Temperature 54 °F 67 °F 80 °F (2003)
Min Temperature 48 °F 54 °F 37 °F (1962)
Degree Days  
Heating Degree Days 14 6  
Month to date heating degree days 69 26  
Since 1 July heating degree days 130 101  
Cooling Degree Days 0 1  
Month to date cooling degree days 0 5  
Year to date cooling degree days 2090 1695  
Moisture  
Dew Point 40 °F    
Average Humidity 68    
Maximum Humidity 77    
Minimum Humidity 59    
Precipitation  
Precipitation 0.02 in 0.18 in 5.88 in (2008)
Month to date precipitation 0.03 0.91  
Year to date precipitation 50.14 49.73  
Snow  
Snow 0.00 in - - ()
Month to date snowfall 0.0  
Since 1 July snowfall 0.0  
Snow Depth 0.00 in    
Sea Level Pressure  
Sea Level Pressure 30.03 in    
Wind  
Wind Speed 9 mph (NNE)    
Max Wind Speed 15 mph    
Max Gust Speed 25 mph    
Visibility 10 miles    
Events Rain    
T = Trace of Precipitation, MM = Missing Value Source: NWS Daily Summary

Daily Weather History Graph

Daily Weather History Graph

Search for Another Location

Airport:

Trip Planner

Search our weather history database for the weather conditions in past years. The results will help you decide how hot, cold, wet, or windy it might be!

Date:

Astronomy

Nov. 05, 2012 Rise Set
Actual Time 6:28 AM EST 5:03 PM EST
Civil Twilight 6:01 AM EST 5:30 PM EST
Nautical Twilight 5:31 AM EST 6:00 PM EST
Astronomical Twilight 5:01 AM EST 6:30 PM EST
Moon 10:38 PM EST (11/5) 11:45 AM EST (11/5)
Length of Visible Light 11h 28m
Length of Day
10h 35m
Waning Gibbous, 63% of the Moon is Illuminated
Nov 5
Waning Gibbous
Nov 6
Last Quarter
Nov 13
New
Nov 20
First Quarter
Nov 28
Full

Hourly Weather History & Observations

Time (EST) Temp. Dew Point Humidity Pressure Visibility Wind Dir Wind Speed Gust Speed Precip Events Conditions
12:51 AM 53.1 °F 48.9 °F 86% 29.95 in 9.0 mi NNE 9.2 mph - 0.02 in Rain Light Rain
1:51 AM 52.0 °F 46.0 °F 80% 29.94 in 10.0 mi NE 10.4 mph 17.3 mph 0.00 in   Overcast
2:51 AM 52.0 °F 45.0 °F 77% 29.95 in 10.0 mi NNE 8.1 mph - N/A   Overcast
3:51 AM 52.0 °F 44.1 °F 74% 29.95 in 10.0 mi NNE 9.2 mph 19.6 mph N/A   Overcast
4:51 AM 52.0 °F 43.0 °F 71% 29.96 in 10.0 mi NNE 11.5 mph 21.9 mph N/A   Overcast
5:51 AM 52.0 °F 42.1 °F 69% 29.98 in 10.0 mi NNE 9.2 mph 20.7 mph N/A   Overcast
6:51 AM 52.0 °F 43.0 °F 71% 29.99 in 10.0 mi NNE 11.5 mph 20.7 mph N/A   Overcast
7:51 AM 51.1 °F 42.1 °F 71% 30.02 in 10.0 mi NNE 9.2 mph 20.7 mph N/A   Overcast
8:51 AM 51.1 °F 41.0 °F 68% 30.04 in 10.0 mi NNE 9.2 mph 19.6 mph N/A   Overcast
9:51 AM 52.0 °F 42.1 °F 69% 30.04 in 10.0 mi NNE 10.4 mph 20.7 mph N/A   Clear
10:51 AM 53.1 °F 42.1 °F 66% 30.04 in 10.0 mi North 10.4 mph 19.6 mph N/A   Clear
11:51 AM 52.0 °F 41.0 °F 66% 30.03 in 10.0 mi NNE 11.5 mph 18.4 mph N/A   Clear
12:51 PM 52.0 °F 41.0 °F 66% 30.02 in 10.0 mi NNE 9.2 mph 18.4 mph N/A   Clear
1:51 PM 52.0 °F 37.9 °F 59% 30.01 in 10.0 mi NNE 11.5 mph 21.9 mph N/A   Clear
2:51 PM 51.1 °F 37.0 °F 59% 30.02 in 10.0 mi NNE 10.4 mph 20.7 mph N/A   Clear
3:51 PM 50.0 °F 37.0 °F 61% 30.04 in 10.0 mi North 10.4 mph 21.9 mph N/A   Partly Cloudy
4:51 PM 48.9 °F 37.0 °F 64% 30.04 in 10.0 mi NNE 9.2 mph 16.1 mph N/A   Scattered Clouds
5:10 PM 48.2 °F 37.4 °F 66% 30.05 in 10.0 mi NNE 8.1 mph 17.3 mph N/A   Mostly Cloudy
5:21 PM 48.2 °F 37.4 °F 66% 30.05 in 10.0 mi NNE 8.1 mph 18.4 mph N/A   Scattered Clouds
5:51 PM 48.0 °F 37.0 °F 66% 30.06 in 10.0 mi NNE 9.2 mph 16.1 mph N/A   Clear
6:49 PM 48.2 °F 37.4 °F 66% 30.06 in 10.0 mi North 8.1 mph 16.1 mph N/A   Mostly Cloudy
6:51 PM 48.0 °F 37.9 °F 68% 30.06 in 10.0 mi NNE 8.1 mph 16.1 mph N/A   Mostly Cloudy
7:02 PM 48.2 °F 37.4 °F 66% 30.07 in 10.0 mi NNE 9.2 mph 20.7 mph N/A   Scattered Clouds
7:51 PM 48.0 °F 37.9 °F 68% 30.08 in 10.0 mi NNE 8.1 mph 16.1 mph N/A   Scattered Clouds
7:59 PM 48.2 °F 37.4 °F 66% 30.08 in 10.0 mi NNE 9.2 mph - N/A   Mostly Cloudy
8:51 PM 48.9 °F 39.0 °F 69% 30.10 in 10.0 mi NNE 8.1 mph 19.6 mph N/A   Overcast
9:07 PM 48.2 °F 39.2 °F 71% 30.10 in 10.0 mi NNE 8.1 mph 16.1 mph N/A   Overcast
9:51 PM 48.0 °F 37.9 °F 68% 30.10 in 10.0 mi Variable 6.9 mph 18.4 mph N/A   Mostly Cloudy
10:51 PM 48.0 °F 37.9 °F 68% 30.09 in 10.0 mi Variable 6.9 mph - N/A   Scattered Clouds
11:51 PM 48.0 °F 39.0 °F 71% 30.08 in 10.0 mi Variable 6.9 mph - N/A   Partly Cloudy